Weather History for Dallas/Ft Worth, TX

Change the Weather History Date:

Friday, March 4, 2011

  Actual Average Record
Temperature  
Mean Temperature 65 °F 54 °F  
Max Temperature 72 °F 65 °F 88 °F (1955)
Min Temperature 57 °F 44 °F 20 °F (2002)
Degree Days  
Heating Degree Days 0 11  
Month to date heating degree days 20 47  
Since 1 July heating degree days 1898 1979  
Cooling Degree Days 0 1  
Month to date cooling degree days 0 2  
Year to date cooling degree days 28 9  
Growing Degree Days 16 (Base 50)    
Moisture  
Dew Point 55 °F    
Average Humidity 76    
Maximum Humidity 90    
Minimum Humidity 61    
Precipitation  
Precipitation 0.00 in 0.11 in 1.27 in (1937)
Month to date precipitation 0.00 0.43  
Year to date precipitation 2.52 5.22  
Snow  
Snow 0.00 in 0.00 in 0.30 in (1989)
Month to date snowfall 0.0 0.0  
Since 1 July snowfall 4.3 1.0  
Snow Depth 0.00 in    
Sea Level Pressure  
Sea Level Pressure 29.85 in    
Wind  
Wind Speed 15 mph (South)    
Max Wind Speed 28 mph    
Max Gust Speed 33 mph    
Visibility 10 miles    
Events      
T = Trace of Precipitation, MM = Missing Value Source: NWS Daily Summary

Daily Weather History Graph

Daily Weather History Graph

Search for Another Location

Airport:

Trip Planner

Search our weather history database for the weather conditions in past years. The results will help you decide how hot, cold, wet, or windy it might be!

Date:

Astronomy

Mar. 04, 2011 Rise Set
Actual Time 6:52 AM CST 6:27 PM CST
Civil Twilight 6:27 AM CST 6:52 PM CST
Nautical Twilight 5:59 AM CST 7:20 PM CST
Astronomical Twilight 5:30 AM CST 7:49 PM CST
Moon 6:27 AM CST (3/4) 6:34 PM CST (3/4)
Length of Visible Light 12h 24m
Length of Day
11h 34m
Waning Crescent, 0% of the Moon is Illuminated
Mar 4
Waning Crescent
Mar 4
New
Mar 12
First Quarter
Mar 19
Full
Mar 26
Last Quarter

Hourly Weather History & Observations

Time (CST) Temp. Dew Point Humidity Pressure Visibility Wind Dir Wind Speed Gust Speed Precip Events Conditions
12:53 AM 63.0 °F 55.0 °F 75% 29.85 in 10.0 mi South 15.0 mph 25.3 mph N/A   Clear
1:53 AM 62.1 °F 55.9 °F 80% 29.85 in 10.0 mi South 16.1 mph 23.0 mph N/A   Scattered Clouds
2:53 AM 62.1 °F 55.9 °F 80% 29.83 in 10.0 mi South 17.3 mph - N/A   Scattered Clouds
3:53 AM 61.0 °F 55.9 °F 83% 29.82 in 10.0 mi South 12.7 mph - N/A   Mostly Cloudy
4:53 AM 62.1 °F 55.9 °F 80% 29.82 in 10.0 mi South 16.1 mph 23.0 mph N/A   Overcast
5:53 AM 61.0 °F 55.9 °F 83% 29.82 in 10.0 mi South 13.8 mph - N/A   Mostly Cloudy
6:03 AM 60.8 °F 55.4 °F 82% 29.83 in 10.0 mi South 16.1 mph - N/A   Mostly Cloudy
6:30 AM 60.8 °F 55.4 °F 82% 29.85 in 10.0 mi South 12.7 mph - N/A   Mostly Cloudy
6:53 AM 61.0 °F 57.0 °F 87% 29.83 in 10.0 mi South 15.0 mph - N/A   Overcast
7:36 AM 60.8 °F 57.2 °F 88% 29.85 in 10.0 mi South 16.1 mph - N/A   Overcast
7:53 AM 62.1 °F 57.0 °F 84% 29.84 in 10.0 mi South 17.3 mph - N/A   Overcast
8:53 AM 63.0 °F 57.0 °F 81% 29.84 in 10.0 mi South 18.4 mph 29.9 mph N/A   Overcast
9:53 AM 66.0 °F 57.0 °F 73% 29.84 in 10.0 mi South 20.7 mph 27.6 mph N/A   Overcast
10:00 AM 66.2 °F 57.2 °F 73% 29.86 in 10.0 mi South 25.3 mph 31.1 mph N/A   Mostly Cloudy
10:07 AM 66.2 °F 57.2 °F 73% 29.86 in 10.0 mi South 21.9 mph 31.1 mph N/A   Scattered Clouds
10:53 AM 66.9 °F 57.0 °F 70% 29.85 in 10.0 mi South 18.4 mph 29.9 mph N/A   Mostly Cloudy
11:53 AM 69.1 °F 57.9 °F 68% 29.85 in 10.0 mi South 20.7 mph 29.9 mph N/A   Mostly Cloudy
12:53 PM 69.1 °F 57.0 °F 65% 29.84 in 10.0 mi South 21.9 mph - N/A   Overcast
1:38 PM 69.8 °F 57.2 °F 64% 29.82 in 10.0 mi South 21.9 mph - N/A   Overcast
1:53 PM 71.1 °F 57.0 °F 61% 29.80 in 10.0 mi South 18.4 mph - N/A   Overcast
2:53 PM 70.0 °F 55.9 °F 61% 29.80 in 10.0 mi South 13.8 mph - N/A   Mostly Cloudy
3:53 PM 70.0 °F 55.9 °F 61% 29.81 in 10.0 mi SSW 13.8 mph - N/A   Mostly Cloudy
4:53 PM 70.0 °F 55.9 °F 61% 29.81 in 10.0 mi SSW 12.7 mph - N/A   Mostly Cloudy
5:53 PM 69.1 °F 55.9 °F 63% 29.82 in 10.0 mi South 11.5 mph - N/A   Mostly Cloudy
6:53 PM 64.9 °F 55.0 °F 70% 29.84 in 10.0 mi South 6.9 mph - N/A   Scattered Clouds
7:53 PM 64.0 °F 55.0 °F 73% 29.86 in 10.0 mi South 6.9 mph - N/A   Scattered Clouds
8:53 PM 64.0 °F 55.0 °F 73% 29.89 in 10.0 mi SW 4.6 mph - N/A   Mostly Cloudy
9:53 PM 64.9 °F 55.0 °F 70% 29.91 in 10.0 mi WSW 5.8 mph - N/A   Mostly Cloudy
10:50 PM 60.8 °F 48.2 °F 63% 29.96 in 10.0 mi North 19.6 mph 26.5 mph N/A   Overcast
10:53 PM 60.1 °F 48.0 °F 64% 29.95 in 10.0 mi North 17.3 mph 26.5 mph N/A   Overcast
11:53 PM 57.0 °F 46.0 °F 67% 29.99 in 10.0 mi North 18.4 mph 27.6 mph N/A   Overcast